Showing default

YAOGAN-30 K, 43170

Orbit data source: Space-Track

YAOGAN-30 K, 43170 is a payload satellite owned by PLA SSF (CN) in LEO that was launched on Thu, 25 Jan 2018 UTC via a CHANG ZHENG 2C launch vehicle from the Xichang Space Center, China (XSC). Payloads include a variety of satellites, spacecraft, and rockets equipped with specific instruments for various scientific and technological missions. These include communications satellites like Starlink; space stations such as the ISS; scientific satellites like the Hubble; Earth observation satellites from companies like Planet Labs, Umbra, and HawkEye 360; GPS; miniature CubeSats for education and research; and military/defense satellites.

Loading next visibility...
YAOGAN-30 K details
Identifier
43170, 2018-011B
Orbit
LEO
Last TLE update4 hours ago
Origin
Flag of CNPLA SSF (CN / PRC)
ManufacturerSECM
MissionOperational Defense Sigint
Bus & MotorUnknown
Mass~500 kg wet, ~500 kg dry
Launch date (UTC)
2018-01-25 (7 years ago)
Launch vehicle
CHANG ZHENG 2C
Launch site
Xichang Space Center, China (XSC)
Object type
Payload
Rocket body
Debris
Shape & HBRBox + 2 Pan, 1 m
Radar Cross Section0.446 m², Large (>1 m²)

Expand to show TLE details & history

TLE from 4 hours ago
0 YAOGAN-30 K
1 43170U 18011B   24337.16747651  .00008467  00000-0  70752-3 0  9991
2 43170  34.9980 325.2518 0003535 114.7423 245.3652 14.97843530373750
Epoch: 2024-12-02T04:01Z
Definitive object data (Epoch: 2024-12-02T04:01:09.97Z)
Latitude-0.00001°
Longitude-166.53497°
Altitude573.504 km
Speed7.576 km/s
True Right ascension21h 41m 00s
True Declination0° 00' 00"
Sunlit
Object was in daylight at TLE epoch
Visualization TLE readout
Latitude-33.48438°
Longitude82.3642°
Altitude583.894 km
Speed7.568 km/s
Apparent Right ascension16h 01m 00s
Apparent Declination-40° 01' 21"
Sunlit
Object is in daylight
Visualization observer readout
Local Sidereal Time06:06:52
Azimuth100.503° ESE
Elevation-66.012°
Doppler factor1
Orbital elements
Apogee altitude579.234 km
Perigee altitude574.317 km
Semi-major axis6,954.912 km
Eccentricity0.0003535
Inclination34.998°
RAAN325.2518°
Arg. of periapsis114.7423°
True anomaly245.32839°
Mean anomaly245.3652°
Eccentric anomaly245.34679°
Mean motion3.74202 °/min
BSTAR0.00070752
Orbital period96.2 mins
Loading maneuver chart data...
Loading historical data...
Loading historical data...
Loading historical data...
Loading historical data...
Loading historical data...
Loading historical data...
Loading historical data...
Other satellites on launch #11 in the year 2018 (2018-01-25 UTC)

YAOGAN-30 K Visibility forecast

Observer location: undefined°, undefined

Span
Click to sort rows by Start time (UTC) header in descending order
Start Az.
Max El. time (UTC)
Max El. Az.
Max El.
End time (UTC)
End Az.
4 mins2024-12-03 02:38:38.936Z186.181° SSW2024-12-03 02:40:38.936Z153.562° SSE16.646°2024-12-03 02:42:38.936Z122.101° SE
6 mins2024-12-03 04:18:38.936Z230.486° WSW2024-12-03 04:21:38.936Z166.939° S30.918°2024-12-03 04:24:38.936Z108.326° ESE
6 mins2024-12-03 06:00:38.936Z241.413° WSW2024-12-03 06:02:38.936Z191.439° SSW33.008°2024-12-03 06:06:38.936Z116.616° SE
5 mins2024-12-03 07:41:38.936Z240.936° WSW2024-12-03 07:43:38.936Z206.118° SW20.76°2024-12-03 07:46:38.936Z154.725° SSE
|